Weather History for KTNB - May, 2014

Change the Weather History Date:

Friday, May 16, 2014

  Actual Average (KGEV) Record (KGEV)
Temperature  
Mean Temperature 48 °F -  
Max Temperature 56 °F 70 °F 81 °F (1974)
Min Temperature 41 °F 47 °F 35 °F (2000)
Degree Days  
Heating Degree Days 16    
Moisture  
Dew Point 36 °F    
Average Humidity 67    
Maximum Humidity 98    
Minimum Humidity 43    
Precipitation  
Precipitation 0.01 in - - ()
Sea Level Pressure  
Sea Level Pressure 30.00 in    
Wind  
Wind Speed 14 mph (WNW)    
Max Wind Speed 26 mph    
Max Gust Speed 38 mph    
Visibility 10 miles    
Events Thunderstorm    
Averages and records for this station are not official NWS values.
T = Trace of Precipitation, MM = Missing Value Source: NWS Daily Summary

Daily Weather History Graph

Daily Weather History Graph

Search for Another Location

Airport or City:

Trip Planner

Search our weather history database for the weather conditions in past years. The results will help you decide how hot, cold, wet, or windy it might be!

Date:

Astronomy

May. 16, 2014 Rise Set
Actual Time 6:19 AM EDT 8:26 PM EDT
Civil Twilight 5:50 AM EDT 8:55 PM EDT
Nautical Twilight 5:15 AM EDT 9:30 PM EDT
Astronomical Twilight 4:38 AM EDT 10:08 PM EDT
Moon 10:32 PM EDT (5/16) 8:00 AM EDT (5/16)
Length of Visible Light 15h 04m
Length of Day
14h 07m
Waning Gibbous, 95% of the Moon is Illuminated
May 16
Waning Gibbous
May 21
Last Quarter
May 28
New
Jun 5
First Quarter
Jun 13
Full

Hourly Weather History & Observations

Time (EDT) Temp. Windchill Dew Point Humidity Pressure Visibility Wind Dir Wind Speed Gust Speed Precip Events Conditions
12:15 AM 45.0 °F 37.6 °F 44.4 °F 98% 30.00 in 7.0 mi WNW 17.3 mph 23.0 mph N/A   Overcast
12:35 AM 45.0 °F 39.3 °F 43.7 °F 95% 30.00 in 7.0 mi WNW 11.5 mph 20.7 mph N/A   Overcast
12:55 AM 44.8 °F 38.3 °F 43.2 °F 94% 30.00 in 10.0 mi WNW 13.8 mph 20.7 mph N/A   Overcast
1:15 AM 44.6 °F 38.1 °F 43.0 °F 94% 30.00 in 7.0 mi WNW 13.8 mph 23.0 mph N/A   Overcast
1:35 AM 44.2 °F 38.0 °F 42.4 °F 93% 30.00 in 7.0 mi WNW 12.7 mph 18.4 mph N/A   Overcast
1:55 AM 44.1 °F 39.0 °F 42.3 °F 93% 29.99 in 7.0 mi WNW 9.2 mph 18.4 mph N/A   Overcast
2:15 AM 44.1 °F 37.7 °F 42.3 °F 93% 29.99 in 10.0 mi WNW 12.7 mph 20.7 mph N/A   Mostly Cloudy
2:35 AM 44.1 °F 36.8 °F 41.9 °F 92% 29.98 in 10.0 mi WNW 16.1 mph 24.2 mph N/A   Scattered Clouds
2:55 AM 44.2 °F 38.4 °F 41.7 °F 91% 29.98 in 10.0 mi WNW 11.5 mph 19.6 mph N/A   Scattered Clouds
3:15 AM 44.1 °F 38.1 °F 41.2 °F 90% 29.98 in 10.0 mi WNW 11.5 mph 20.7 mph N/A   Scattered Clouds
3:35 AM 43.9 °F 38.8 °F 41.0 °F 90% 29.98 in 10.0 mi WNW 9.2 mph 19.6 mph N/A   Scattered Clouds
3:55 AM 43.7 °F 37.7 °F 37.6 °F 79% 29.97 in 10.0 mi NW 11.5 mph 25.3 mph N/A   Scattered Clouds
4:15 AM 43.5 °F 37.1 °F 36.1 °F 75% 29.95 in 10.0 mi NW 12.7 mph 21.9 mph N/A   Scattered Clouds
4:35 AM 43.2 °F 37.4 °F 35.6 °F 75% 29.95 in 10.0 mi NW 10.4 mph 24.2 mph N/A   Scattered Clouds
4:55 AM 43.0 °F 35.7 °F 34.9 °F 73% 29.94 in 10.0 mi NW 15.0 mph 23.0 mph N/A   Scattered Clouds
5:15 AM 42.8 °F 36.6 °F 34.2 °F 72% 29.94 in 10.0 mi NW 11.5 mph 23.0 mph N/A   Scattered Clouds
5:35 AM 42.3 °F 36.8 °F 34.0 °F 72% 29.95 in 10.0 mi NW 9.2 mph 16.1 mph N/A   Clear
5:55 AM 41.5 °F 36.4 °F 35.4 °F 79% 29.95 in 10.0 mi NW 8.1 mph 16.1 mph N/A   Clear
6:15 AM 41.4 °F 34.7 °F 35.6 °F 80% 29.96 in 10.0 mi NW 11.5 mph 23.0 mph N/A   Clear
6:35 AM 41.5 °F 36.4 °F 35.8 °F 80% 29.96 in 10.0 mi NW 8.1 mph 18.4 mph N/A   Scattered Clouds
6:55 AM 42.1 °F 35.2 °F 35.4 °F 77% 29.96 in 10.0 mi WNW 12.7 mph 18.4 mph N/A   Scattered Clouds
7:15 AM 42.3 °F 35.9 °F 35.1 °F 76% 29.96 in 10.0 mi NW 11.5 mph - N/A   Clear
7:35 AM 42.3 °F 35.5 °F 36.0 °F 78% 29.98 in 10.0 mi NW 12.7 mph 20.7 mph N/A   Clear
7:55 AM 43.0 °F 35.4 °F 36.1 °F 77% 29.98 in 10.0 mi NW 16.1 mph 25.3 mph N/A   Scattered Clouds
8:15 AM 43.9 °F 38.3 °F 35.8 °F 73% 29.98 in 10.0 mi NW 10.4 mph 19.6 mph N/A   Scattered Clouds
8:35 AM 44.1 °F 37.7 °F 35.2 °F 71% 29.98 in 10.0 mi NW 12.7 mph 21.9 mph N/A   Scattered Clouds
8:55 AM 44.6 °F 36.1 °F 34.7 °F 68% 29.97 in 10.0 mi WNW 21.9 mph 27.6 mph N/A   Clear
9:15 AM 45.0 °F 37.9 °F 34.0 °F 65% 29.98 in 10.0 mi NW 16.1 mph 29.9 mph N/A   Clear
9:35 AM 45.7 °F 38.3 °F 34.2 °F 64% 29.98 in 10.0 mi NW 18.4 mph 25.3 mph N/A   Clear
9:55 AM 46.2 °F 38.7 °F 33.8 °F 62% 29.98 in 10.0 mi WNW 19.6 mph 28.8 mph N/A   Clear
10:15 AM 46.9 °F - 34.2 °F 61% 29.99 in 10.0 mi WNW 19.6 mph 27.6 mph N/A   Clear
10:35 AM 48.2 °F - 36.0 °F 63% 30.00 in 10.0 mi WNW 16.1 mph 21.9 mph N/A   Clear
10:55 AM 48.4 °F - 34.7 °F 59% 30.01 in 10.0 mi NNW 10.4 mph 26.5 mph N/A   Clear
11:15 AM 49.6 °F - 35.4 °F 58% 30.00 in 10.0 mi WNW 15.0 mph 20.7 mph N/A   Clear
11:35 AM 50.9 °F - 34.7 °F 54% 30.00 in 10.0 mi NW 17.3 mph 23.0 mph N/A   Clear
11:55 AM 51.6 °F - 35.1 °F 53% 30.01 in 10.0 mi NW 15.0 mph 24.2 mph N/A   Clear
12:15 PM 51.4 °F - 33.6 °F 51% 30.01 in 10.0 mi WNW 16.1 mph 27.6 mph N/A   Scattered Clouds
12:35 PM 52.7 °F - 35.2 °F 52% 30.01 in 10.0 mi WNW 17.3 mph 24.2 mph N/A   Clear
12:55 PM 53.1 °F - 34.2 °F 49% 30.01 in 10.0 mi WNW 18.4 mph 23.0 mph N/A   Clear
1:15 PM 53.8 °F - 34.5 °F 48% 30.00 in 10.0 mi WNW 10.4 mph 25.3 mph N/A   Scattered Clouds
1:35 PM 54.1 °F - 33.8 °F 46% 30.00 in 10.0 mi West 17.3 mph 21.9 mph N/A   Clear
1:55 PM 56.1 °F - 33.6 °F 43% 29.99 in 10.0 mi WNW 12.7 mph 19.6 mph N/A   Clear
2:15 PM 55.2 °F - 33.1 °F 43% 29.99 in 10.0 mi WNW 11.5 mph 21.9 mph N/A   Clear
2:35 PM 55.8 °F - 33.3 °F 43% 29.99 in 10.0 mi WNW 16.1 mph 20.7 mph N/A   Scattered Clouds
2:55 PM 53.1 °F - 35.1 °F 50% 30.00 in 10.0 mi NW 19.6 mph 25.3 mph N/A   Clear
3:15 PM 52.5 °F - 36.5 °F 54% 30.00 in 10.0 mi WNW 11.5 mph 28.8 mph N/A   Clear
3:35 PM 53.4 °F - 35.1 °F 50% 30.00 in 10.0 mi WNW 18.4 mph 29.9 mph N/A   Clear
3:55 PM 52.3 °F - 35.6 °F 53% 29.99 in 10.0 mi WNW 17.3 mph 26.5 mph N/A   Clear
4:15 PM 53.4 °F - 36.1 °F 52% 29.99 in 10.0 mi WNW 19.6 mph 28.8 mph N/A Thunderstorm Scattered Clouds
4:35 PM 52.3 °F - 36.0 °F 54% 29.98 in 10.0 mi WNW 18.4 mph 21.9 mph N/A   Clear
4:55 PM 52.7 °F - 34.5 °F 50% 29.98 in 10.0 mi WNW 23.0 mph 28.8 mph N/A   Clear
5:15 PM 51.8 °F - 32.0 °F 47% 29.99 in 10.0 mi WNW 13.8 mph 28.8 mph N/A   Clear
5:35 PM 50.9 °F - 32.4 °F 49% 29.99 in 10.0 mi WNW 17.3 mph 24.2 mph N/A   Clear
5:55 PM 50.7 °F - 32.7 °F 50% 29.99 in 10.0 mi WNW 11.5 mph 21.9 mph N/A   Scattered Clouds
6:15 PM 52.7 °F - 32.0 °F 45% 29.99 in 10.0 mi WNW 16.1 mph 24.2 mph N/A   Scattered Clouds
6:35 PM 52.9 °F - 32.4 °F 46% 30.00 in 10.0 mi NW 11.5 mph 25.3 mph N/A   Clear
6:55 PM 52.2 °F - 32.2 °F 47% 30.01 in 10.0 mi WNW 15.0 mph 21.9 mph N/A   Clear
7:15 PM 48.9 °F - 35.1 °F 59% 30.04 in 10.0 mi WNW 26.5 mph 38.0 mph N/A   Scattered Clouds
7:35 PM 44.6 °F 40.2 °F 36.3 °F 73% 30.05 in 10.0 mi NW 8.1 mph 18.4 mph N/A   Light Drizzle
7:55 PM 44.6 °F 37.4 °F 35.6 °F 71% 30.05 in 10.0 mi WNW 16.1 mph 23.0 mph N/A   Clear
8:15 PM 43.9 °F 37.2 °F 35.4 °F 72% 30.05 in 10.0 mi WNW 13.8 mph 23.0 mph N/A   Clear
8:35 PM 43.9 °F 35.9 °F 35.6 °F 73% 30.06 in 10.0 mi WNW 18.4 mph 28.8 mph N/A   Light Drizzle
8:55 PM 43.9 °F 36.8 °F 34.3 °F 69% 30.06 in 10.0 mi WNW 15.0 mph 24.2 mph N/A   Clear
9:15 PM 43.3 °F 37.2 °F 34.2 °F 70% 30.06 in 10.0 mi WNW 11.5 mph 23.0 mph N/A   Clear
9:35 PM 42.8 °F 34.3 °F 34.0 °F 71% 30.06 in 10.0 mi West 19.6 mph 27.6 mph N/A   Clear
9:55 PM 42.4 °F 35.7 °F 33.6 °F 71% 30.06 in 10.0 mi WNW 12.7 mph 21.9 mph N/A   Clear
10:15 PM 42.3 °F 32.4 °F 32.9 °F 69% 30.07 in 10.0 mi WNW 25.3 mph 31.1 mph N/A   Clear
10:35 PM 42.1 °F 33.1 °F 33.1 °F 70% 30.08 in 10.0 mi WNW 20.7 mph 26.5 mph N/A   Clear
10:55 PM 42.1 °F 32.6 °F 32.7 °F 69% 30.08 in 10.0 mi WNW 23.0 mph 29.9 mph N/A   Clear
11:15 PM 41.9 °F 32.6 °F 32.9 °F 70% 30.07 in 10.0 mi WNW 21.9 mph 28.8 mph N/A   Clear
11:35 PM 41.2 °F 32.4 °F 33.3 °F 73% 30.08 in 10.0 mi WNW 18.4 mph 27.6 mph N/A   Clear